Location: Gunung Kajang
(2.4167°N, 113.7167°E)
Time: 04:45:58
(UTC+00:00)

ARIANE 5 R/B - Pass Details

Date: 29 May 2022
Orbit: 243 x 32186 km, 4.6° (Epoch: 24 June)

Event Time Altitude Azimuth Distance (km) Brightness Sun altitude
Exits shadow 18:44:22 44° 79° (E) 2,175 4.3 -47.8°
Drops below altitude 10° 19:04:10 10° 89° (E) 10,109 8.1 -43.7°
Sets 19:40:57 0° 90° (E) 19,973 9.9 -35.9°
